Van Nuys, CA

2:58 PM PDT on March 27, 2017 (GMT -0700)
Van Nuys

Weather History for KVNY - October, 2013

Change the Weather History Date:

Friday, October 11, 2013

  Actual Average Record
Temperature  
Mean Temperature 62 °F -  
Max Temperature 78 °F 81 °F 100 °F (2015)
Min Temperature 48 °F 54 °F 48 °F (2013)
Degree Days  
Heating Degree Days 2    
Growing Degree Days 12 (Base 50)    
Moisture  
Dew Point 45 °F    
Average Humidity 59    
Maximum Humidity 83    
Minimum Humidity 25    
Precipitation  
Precipitation 0.00 in - - ()
Sea Level Pressure  
Sea Level Pressure 29.98 in    
Wind  
Wind Speed 1 mph (WSW)    
Max Wind Speed 9 mph    
Max Gust Speed -    
Visibility 10 miles    
Events      
Averages and records for this station are not official NWS values.
T = Trace of Precipitation, MM = Missing Value Source: NWS Daily Summary

Daily Weather History Graph

Daily Weather History Graph

Search for Another Location

Airport or City:

Trip Planner

Search our weather history database for the weather conditions in past years. The results will help you decide how hot, cold, wet, or windy it might be!

Date:

Astronomy

Oct. 11, 2013 Rise Set
Actual Time 6:56 AM PDT 6:24 PM PDT
Civil Twilight 6:31 AM PDT 6:49 PM PDT
Nautical Twilight 6:02 AM PDT 7:18 PM PDT
Astronomical Twilight 5:33 AM PDT 7:47 PM PDT
Moon 1:34 PM PDT (10/11) No Moon Set
Length of Visible Light 12h 18m
Length of Day
11h 28m
Waxing Crescent, 48% of the Moon is Illuminated
Oct 11
Waxing Crescent
Oct 11
First Quarter
Oct 18
Full
Oct 26
Last Quarter
Nov 3
New

Hourly Weather History & Observations

Time (PDT) Temp. Dew Point Humidity Pressure Visibility Wind Dir Wind Speed Gust Speed Precip Events Conditions
12:51 AM 54.0 °F 46.9 °F 77% 30.00 in 10.0 mi Calm Calm - N/A   Clear
1:51 AM 53.1 °F 46.0 °F 77% 30.01 in 10.0 mi Calm Calm - N/A   Clear
2:51 AM 51.1 °F 46.0 °F 83% 30.00 in 10.0 mi Calm Calm - N/A   Clear
3:51 AM 51.1 °F 45.0 °F 80% 30.00 in 10.0 mi Calm Calm - N/A   Clear
4:51 AM 50.0 °F 45.0 °F 83% 30.00 in 10.0 mi Calm Calm - N/A   Clear
5:51 AM 48.9 °F 44.1 °F 83% 30.01 in 10.0 mi Calm Calm - N/A   Clear
6:51 AM 48.9 °F 44.1 °F 83% 30.01 in 10.0 mi Calm Calm - N/A   Clear
7:51 AM 51.1 °F 46.0 °F 83% 30.03 in 10.0 mi Calm Calm - N/A   Clear
8:51 AM 55.0 °F 46.9 °F 74% 30.04 in 10.0 mi Calm Calm - N/A   Clear
9:51 AM 61.0 °F 46.9 °F 60% 30.03 in 10.0 mi Calm Calm - N/A   Clear
10:51 AM 66.0 °F 44.1 °F 45% 30.02 in 10.0 mi Calm Calm - N/A   Clear
11:51 AM 70.0 °F 42.1 °F 36% 30.01 in 10.0 mi Calm Calm - N/A   Clear
12:51 PM 73.0 °F 39.9 °F 30% 29.98 in 10.0 mi Variable 3.5 mph - N/A   Clear
1:51 PM 75.0 °F 44.1 °F 33% 29.96 in 10.0 mi Calm Calm - N/A   Clear
2:51 PM 77.0 °F 39.0 °F 25% 29.94 in 10.0 mi SSE 4.6 mph - N/A   Clear
3:51 PM 75.9 °F 39.9 °F 27% 29.93 in 10.0 mi ESE 9.2 mph - N/A   Clear
4:51 PM 73.9 °F 42.1 °F 32% 29.93 in 10.0 mi SSE 9.2 mph - N/A   Clear
5:51 PM 72.0 °F 48.9 °F 44% 29.93 in 10.0 mi West 4.6 mph - N/A   Clear
6:51 PM 68.0 °F 48.9 °F 50% 29.94 in 10.0 mi NW 3.5 mph - N/A   Clear
7:51 PM 66.0 °F 48.0 °F 52% 29.94 in 10.0 mi West 3.5 mph - N/A   Clear
8:51 PM 63.0 °F 48.0 °F 58% 29.95 in 10.0 mi West 3.5 mph - N/A   Clear
9:51 PM 61.0 °F 48.0 °F 62% 29.95 in 10.0 mi Calm Calm - N/A   Clear
10:51 PM 60.1 °F 48.0 °F 64% 29.95 in 10.0 mi WNW 3.5 mph - N/A   Clear
11:51 PM 59.0 °F 48.9 °F 69% 29.94 in 10.0 mi Calm Calm - N/A   Clear